Location: Kermapucano
(48.0667°N, 3.3000°W)
Time: 20:12:43
(UTC+00:00)

Cosmos 372 Rocket - Pass Details

Date: 29 November 2020
Orbit: 737 x 769 km, 74.1° (Epoch: 27 January)

Event Time Altitude Azimuth Distance (km) Brightness Sun altitude
Rises 06:10:41 0° 192° (SSW) 3,158 7.2 -14.4°
Reaches altitude 10° 06:13:02 10° 190° (S) 2,238 6.5 -14.0°
Maximum altitude 06:18:02 67° 109° (ESE) 801 4.3 -13.2°
Drops below altitude 10° 06:23:06 10° 27° (NNE) 2,258 6.5 -12.4°
Sets 06:25:29 0° 25° (NNE) 3,188 7.3 -12.1°
